Terminal Aerodrome Forecast
Issued by NWS Rapid City, SD

Home | Current Version | Previous Version | Graphics & Text | Print | Product List | Glossary On
Versions: 1 2 3 4 5 6 7 8 9 10 11 12 13 14 15 16 17 18 19 20 21 22 23 24 25 26 27 28 29 30 31 32 33 34 35
698
FTUS43 KUNR 122320
TAFRAP
TAF
KRAP 122320Z 1300/1324 12007KT 1/2SM -FZDZ FZFG VV002
     FM131500 16008KT P6SM OVC008
     FM131900 14010KT P6SM BKN020=

USA.gov is the U.S. government's official web portal to all federal, state and local government web resources and services.